This is the latest recevied weather packets stored in our database for station/object G4KVI. If no packets are shown the sender has not sent any weather packets the latest 10 day(s).
| Time | Temp. | Humidity | Pressure | Rain* | Wind** | Luminosity | Snow |
|---|---|---|---|---|---|---|---|
| 1788206104 | 14.44° C | 75% | 1021 hPa | 0 mm | - | 0 W/m² | - |
| 1788205805 | 14.44° C | 75% | 1020.9 hPa | 0 mm | - | 0 W/m² | - |
| 1788205504 | 14.44° C | 75% | 1021 hPa | 0 mm | - | 0 W/m² | - |
| 1788205204 | 14.44° C | 76% | 1020.7 hPa | 0 mm | - | 0 W/m² | - |
| 1788204904 | 14.44° C | 76% | 1020.8 hPa | 0 mm | - | 0 W/m² | - |
| 1788204605 | 15° C | 76% | 1020.8 hPa | 0 mm | - | 0 W/m² | - |
| 1788204304 | 15° C | 76% | 1020.6 hPa | 0 mm | - | 0 W/m² | - |
| 1788204004 | 15° C | 76% | 1020.9 hPa | 0 mm | - | 0 W/m² | - |
| 1788203704 | 15° C | 75% | 1020.5 hPa | 0 mm | - | 0 W/m² | - |
| 1788203404 | 15° C | 75% | 1020.4 hPa | 0 mm | - | 0 W/m² | - |
| 1788203113 | 15.56° C | 75% | 1020.7 hPa | 0 mm | - | 1 W/m² | - |
| 1788202804 | 15.56° C | 74% | 1020.5 hPa | 0 mm | - | 2 W/m² | - |
| 1788202504 | 15.56° C | 74% | 1020.3 hPa | 0 mm | - | 4 W/m² | - |
| 1788202223 | 15.56° C | 74% | 1020.4 hPa | 0 mm | - | 6 W/m² | - |
| 1788201904 | 15.56° C | 73% | 1020.2 hPa | 0 mm | - | 8 W/m² | - |
| 1788201604 | 16.11° C | 73% | 1020.4 hPa | 0 mm | - | 12 W/m² | - |
| 1788201311 | 16.11° C | 72% | 1020.1 hPa | 0 mm | - | 17 W/m² | - |
| 1788201005 | 16.11° C | 72% | 1020.4 hPa | 0 mm | - | 23 W/m² | - |
| 1788200704 | 16.67° C | 71% | 1020.3 hPa | 0 mm | - | 28 W/m² | - |
| 1788200404 | 16.67° C | 71% | 1020.2 hPa | 0 mm | - | 36 W/m² | - |
| 1788200104 | 16.67° C | 71% | 1020.2 hPa | 0 mm | - | 44 W/m² | - |
| 1788199804 | 16.67° C | 70% | 1020 hPa | 0 mm | - | 48 W/m² | - |
| 1788199504 | 16.67° C | 70% | 1020 hPa | 0 mm | - | 50 W/m² | - |
| 1788199204 | 16.67° C | 70% | 1020.1 hPa | 0 mm | - | 51 W/m² | - |
| 1788198904 | 17.22° C | 71% | 1019.9 hPa | 0 mm | - | 54 W/m² | - |
* Rain latest hour (hover to see other rain measurements)
** Current wind speed in m/s (hover to see current wind gust speed)